FW1093 Weather Reports


Display with metric or nautical units.
time (UTC)temp
F
wind
direction
speed
MPH
gust
MPH
rain 1hr
in
rain 24hr
in
rain mn
in
humidity
%
barometer
mb
20260506073342 56 148 0.0 0.0 0.00 0.00 0.00 87 1010.6
20260506072330 56 160 0.0 0.0 0.00 0.00 0.00 86 1010.6
20260506071318 57 160 0.0 0.0 0.00 0.00 0.00 85 1010.6
20260506070333 57 170 0.0 2.0 0.00 0.00 0.00 84 1010.6
20260506062335 58 248 0.0 2.0 0.00 0.00 0.00 83 1010.4
20260506061325 58 135 0.0 1.0 0.00 0.00 0.00 83 1010.5
20260506060312 58 146 0.0 1.0 0.00 0.00 0.00 83 1010.5
20260506051312 60 82 0.0 0.0 0.00 0.00 0.00 79 1010.9
20260506050325 60 95 0.0 1.0 0.00 0.00 0.00 78 1011.0
20260506044320 60 137 0.0 1.0 0.00 0.00 0.00 77 1011.0
20260506043336 60 101 0.0 1.0 0.00 0.00 0.00 76 1011.0
20260506042328 60 124 0.0 1.0 0.00 0.00 0.00 76 1011.0
20260506041317 61 127 0.0 2.0 0.00 0.00 0.00 75 1010.9
20260506040325 61 165 0.0 2.0 0.00 0.00 0.00 74 1011.0
20260506035314 61 130 0.0 2.0 0.00 0.00 0.00 74 1011.1
20260506034321 61 152 0.0 0.0 0.00 0.00 0.00 73 1011.0
20260506033331 61 124 0.0 1.0 0.00 0.00 0.00 73 1011.0
20260506032319 61 141 1.0 4.0 0.00 0.00 0.00 72 1010.9
20260506031327 61 128 0.0 3.0 0.00 0.00 0.00 72 1010.9
20260506030317 62 198 0.0 4.0 0.00 0.00 0.00 72 1010.9
20260506025327 62 184 0.0 1.0 0.00 0.00 0.00 72 1011.1
20260506024317 62 182 0.0 4.0 0.00 0.00 0.00 71 1011.1
20260506023326 62 117 0.0 0.0 0.00 0.00 0.00 72 1011.0
20260506022314 62 167 0.0 2.0 0.00 0.00 0.00 71 1011.0
20260506021331 62 142 0.0 1.0 0.00 0.00 0.00 71 1011.0
20260506020321 62 167 0.0 1.0 0.00 0.00 0.00 71 1011.0
20260506015357 62 207 0.0 2.0 0.00 0.00 0.00 70 1010.8
20260506014324 62 156 0.0 2.0 0.00 0.00 0.00 69 1010.8
20260506013313 62 152 0.0 2.0 0.00 0.00 0.00 69 1010.6
20260506012330 62 147 0.0 1.0 0.00 0.00 0.00 69 1010.5
20260506011315 63 192 0.0 2.0 0.00 0.00 0.00 68 1010.3
20260506010331 63 174 0.0 1.0 0.00 0.00 0.00 67 1010.3
20260506005319 63 141 0.0 0.0 0.00 0.00 0.00 66 1010.2
20260506004329 64 181 0.0 3.0 0.00 0.00 0.00 65 1010.2
20260506003336 64 217 0.0 2.0 0.00 0.00 0.00 64 1010.0
20260506002326 65 122 0.0 2.0 0.00 0.00 0.00 63 1009.8
20260506001344 65 128 0.0 2.0 0.00 0.00 0.00 62 1009.6
20260506000330 66 138 0.0 4.0 0.00 0.00 0.00 61 1009.6
20260505235323 66 140 0.0 2.0 0.00 0.00 0.00 61 1009.4
20260505234338 67 93 0.0 1.0 0.00 0.00 0.00 61 1009.2
20260505233346 67 136 1.0 3.0 0.00 0.00 0.00 60 1009.3
20260505232315 68 195 0.0 4.0 0.00 0.00 0.00 59 1009.0
20260505231325 69 234 1.0 4.0 0.00 0.00 0.00 58 1008.9
20260505230314 69 158 1.0 6.0 0.00 0.00 0.00 57 1008.8
20260505225329 70 167 2.0 4.0 0.00 0.00 0.00 56 1008.7
20260505224318 71 335 0.0 4.0 0.00 0.00 0.00 56 1008.6
20260505223328 72 108 1.0 5.0 0.00 0.00 0.00 54 1008.6
20260505222317 73 256 0.0 3.0 0.00 0.00 0.00 53 1008.7
20260505221333 73 250 0.0 5.0 0.00 0.00 0.00 52 1008.7
20260505220341 74 108 0.0 5.0 0.00 0.00 0.00 54 1008.8
20260505215337 73 260 0.0 4.0 0.00 0.00 0.00 53 1008.8
20260505214327 73 131 1.0 3.0 0.00 0.00 0.00 54 1008.7
20260505213315 74 96 0.0 3.0 0.00 0.00 0.00 54 1008.6
20260505212323 74 200 2.0 6.0 0.00 0.00 0.00 52 1008.6
20260505211313 75 134 1.0 6.0 0.00 0.00 0.00 53 1008.5
20260505210348 75 136 1.0 4.0 0.00 0.00 0.00 51 1008.2
20260505205314 75 153 1.0 7.0 0.00 0.00 0.00 52 1008.6
20260505204331 75 169 1.0 4.0 0.00 0.00 0.00 51 1008.5
20260505203319 75 185 1.0 9.0 0.00 0.00 0.00 52 1008.6
20260505202334 75 198 1.0 5.0 0.00 0.00 0.00 52 1008.6
20260505201323 76 198 1.0 5.0 0.00 0.00 0.00 51 1008.6
20260505200313 76 261 0.0 3.0 0.00 0.00 0.00 51 1008.7
20260505195328 76 217 0.0 2.0 0.00 0.00 0.00 50 1008.8
20260505194314 76 112 1.0 5.0 0.00 0.00 0.00 50 1008.9
20260505193330 77 142 2.0 5.0 0.00 0.00 0.00 48 1008.8
20260505192319 77 117 2.0 5.0 0.00 0.00 0.00 49 1008.9
20260505191315 77 183 0.0 5.0 0.00 0.00 0.00 50 1009.2
20260505190330 78 124 2.0 6.0 0.00 0.00 0.00 47 1009.3
20260505185316 79 261 1.0 5.0 0.00 0.00 0.00 48 1009.4
20260505184325 79 121 2.0 3.0 0.00 0.00 0.00 47 1009.5
20260505183315 79 110 2.0 6.0 0.00 0.00 0.00 48 1009.5
20260505182330 79 108 1.0 4.0 0.00 0.00 0.00 47 1009.5
20260505181318 79 278 1.0 5.0 0.00 0.00 0.00 46 1009.4
20260505180333 79 124 1.0 4.0 0.00 0.00 0.00 45 1009.5
20260505175322 79 180 1.0 4.0 0.00 0.00 0.00 48 1009.4
20260505174331 79 117 1.0 4.0 0.00 0.00 0.00 47 1009.5
20260505173323 79 247 0.0 6.0 0.00 0.00 0.00 50 1009.5
20260505172312 79 106 1.0 3.0 0.00 0.00 0.00 48 1009.6
20260505171329 79 186 2.0 5.0 0.00 0.00 0.00 48 1009.6
20260505170345 78 167 1.0 4.0 0.00 0.00 0.00 46 1009.6
20260505165312 78 120 1.0 6.0 0.00 0.00 0.00 48 1009.6
20260505164326 78 253 1.0 5.0 0.00 0.00 0.00 48 1009.8
20260505163315 78 320 1.0 3.0 0.00 0.00 0.00 47 1009.8
20260505162330 77 206 0.0 4.0 0.00 0.00 0.00 51 1010.4
20260505161319 77 163 1.0 3.0 0.00 0.00 0.00 51 1010.3
20260505160327 76 148 0.0 4.0 0.00 0.00 0.00 51 1010.4
20260505153314 75 123 0.0 2.0 0.00 0.00 0.00 51 1010.7
20260505152329 74 264 0.0 3.0 0.00 0.00 0.00 53 1011.0
20260505151315 74 165 0.0 3.0 0.00 0.00 0.00 55 1011.1
20260505150325 72 142 1.0 4.0 0.00 0.00 0.00 56 1011.2
20260505140324 64 122 0.0 2.0 0.00 0.00 0.00 72 1011.0
20260505124334 57 134 0.0 0.0 0.00 0.00 0.00 85 1010.8
20260505123322 57 127 0.0 0.0 0.00 0.00 0.00 83 1011.3
20260505122330 56 124 0.0 1.0 0.00 0.00 0.00 84 1011.5
20260505121339 56 124 0.0 1.0 0.00 0.00 0.00 86 1011.7
20260505120334 54 128 0.0 1.0 0.00 0.00 0.00 90 1011.7
20260505115325 53 127 0.0 1.0 0.00 0.00 0.00 91 1011.8
20260505114340 53 115 0.0 1.0 0.00 0.00 0.00 93 1011.7
20260505113329 52 146 0.0 0.0 0.00 0.00 0.00 93 1011.7
20260505112318 51 192 0.0 1.0 0.00 0.00 0.00 95 1011.8
20260505111325 50 285 0.0 0.0 0.00 0.00 0.00 95 1011.6
20260505110334 50 286 0.0 1.0 0.00 0.00 0.00 96 1011.5
20260505101322 47 188 0.0 0.0 0.00 0.00 0.00 94 1010.8
20260505100331 47 269 0.0 0.0 0.00 0.00 0.00 94 1010.6
20260505095319 47 269 0.0 0.0 0.00 0.00 0.00 94 1010.5
20260505094329 47 269 0.0 1.0 0.00 0.00 0.00 93 1010.6
20260505093337 48 269 0.0 0.0 0.00 0.00 0.00 94 1010.6
20260505092326 48 270 0.0 0.0 0.00 0.00 0.00 94 1010.4
20260505091313 47 270 0.0 0.0 0.00 0.00 0.00 93 1010.6
20260505090329 47 270 0.0 0.0 0.00 0.00 0.00 92 1010.5
20260505085338 47 270 0.0 0.0 0.00 0.00 0.00 92 1010.4
20260505084347 47 270 0.0 0.0 0.00 0.00 0.00 92 1010.5
20260505083314 47 270 0.0 0.0 0.00 0.00 0.00 92 1010.5
20260505082323 47 269 0.0 0.0 0.00 0.00 0.00 92 1010.7
20260505081313 47 270 0.0 0.0 0.00 0.00 0.00 91 1010.6
20260505080328 47 269 0.0 0.0 0.00 0.00 0.00 91 1010.7
20260505075336 47 270 0.0 0.0 0.00 0.00 0.00 91 1010.6
20260505074326 47 270 0.0 0.0 0.00 0.00 0.00 90 1010.7